Weather History for Natchez, MS

Change the Weather History Date:

Saturday, December 29, 2012

  Actual Average Record
Temperature  
Mean Temperature 37 °F -  
Max Temperature 44 °F 60 °F 78 °F (1984)
Min Temperature 30 °F 41 °F 19 °F (1961)
Degree Days  
Heating Degree Days 28    
Moisture  
Dew Point 29 °F    
Average Humidity 69    
Maximum Humidity 93    
Minimum Humidity 46    
Precipitation  
Precipitation 0.00 in - - ()
Sea Level Pressure  
Sea Level Pressure 30.25 in    
Wind  
Wind Speed 10 mph (NNW)    
Max Wind Speed 17 mph    
Max Gust Speed 24 mph    
Visibility 10 miles    
Events      
Averages and records for this station are not official NWS values.
T = Trace of Precipitation, MM = Missing Value Source: NWS Daily Summary

Daily Weather History Graph

Daily Weather History Graph

Search for Another Location

Airport:

Trip Planner

Search our weather history database for the weather conditions in past years. The results will help you decide how hot, cold, wet, or windy it might be!

Date:

Astronomy

Dec. 29, 2012 Rise Set
Actual Time 7:04 AM CST 5:11 PM CST
Civil Twilight 6:37 AM CST 5:37 PM CST
Nautical Twilight 6:06 AM CST 6:08 PM CST
Astronomical Twilight 5:37 AM CST 6:37 PM CST
Moon 6:37 PM CST (12/29) 7:43 AM CST (12/29)
Length of Visible Light 11h 00m
Length of Day
10h 06m
Full, 98% of the Moon is Illuminated
Dec 29
Full
Jan 4
Last Quarter
Jan 11
New
Jan 18
First Quarter
Jan 26
Full

Hourly Weather History & Observations

Time (CST) Temp. Windchill Dew Point Humidity Pressure Visibility Wind Dir Wind Speed Gust Speed Precip Events Conditions
12:15 AM 41.0 °F 35.8 °F 37.4 °F 87% 30.03 in 10.0 mi NNW 8.1 mph - N/A   Overcast
12:35 AM 41.0 °F 33.5 °F 37.4 °F 87% 30.04 in 10.0 mi NW 13.8 mph - N/A   Overcast
12:55 AM 41.0 °F 33.9 °F 37.4 °F 87% 30.04 in 10.0 mi NW 12.7 mph - N/A   Overcast
1:15 AM 41.0 °F 36.4 °F 37.4 °F 87% 30.05 in 10.0 mi NNW 6.9 mph 17.3 mph N/A   Overcast
1:55 AM 41.0 °F 33.1 °F 37.4 °F 87% 30.07 in 10.0 mi North 15.0 mph 20.7 mph N/A   Overcast
2:15 AM 39.2 °F 33.6 °F 35.6 °F 87% 30.07 in 10.0 mi NNW 8.1 mph 19.6 mph N/A   Overcast
2:35 AM 39.2 °F 32.5 °F 35.6 °F 87% 30.08 in 10.0 mi NNW 10.4 mph - N/A   Overcast
2:55 AM 39.2 °F 32.0 °F 35.6 °F 87% 30.09 in 10.0 mi NW 11.5 mph 18.4 mph N/A   Overcast
3:15 AM 39.2 °F 31.6 °F 37.4 °F 93% 30.10 in 10.0 mi NNW 12.7 mph 18.4 mph N/A   Overcast
3:35 AM 39.2 °F 31.2 °F 35.6 °F 87% 30.10 in 10.0 mi NNW 13.8 mph - N/A   Overcast
3:55 AM 39.2 °F 30.8 °F 35.6 °F 87% 30.11 in 10.0 mi NW 15.0 mph 18.4 mph N/A   Overcast
4:15 AM 39.2 °F 30.8 °F 33.8 °F 81% 30.11 in 10.0 mi NW 15.0 mph 21.9 mph N/A   Overcast
4:35 AM 39.2 °F 31.6 °F 33.8 °F 81% 30.12 in 10.0 mi NNW 12.7 mph 19.6 mph N/A   Overcast
4:55 AM 37.4 °F 28.9 °F 33.8 °F 87% 30.13 in 10.0 mi NNW 13.8 mph 20.7 mph N/A   Overcast
5:15 AM 37.4 °F 29.3 °F 33.8 °F 87% 30.14 in 10.0 mi NNW 12.7 mph 19.6 mph N/A   Overcast
5:35 AM 37.4 °F 29.8 °F 32.0 °F 81% 30.15 in 10.0 mi North 11.5 mph 20.7 mph N/A   Overcast
5:55 AM 37.4 °F 29.8 °F 32.0 °F 81% 30.16 in 10.0 mi NNW 11.5 mph - N/A   Overcast
6:15 AM 37.4 °F 32.1 °F 32.0 °F 81% 30.17 in 10.0 mi NNW 6.9 mph - N/A   Overcast
6:35 AM 37.4 °F 32.1 °F 32.0 °F 81% 30.18 in 10.0 mi NW 6.9 mph - N/A   Overcast
6:55 AM 37.4 °F 32.8 °F 33.8 °F 87% 30.18 in 10.0 mi NW 5.8 mph - N/A   Overcast
7:15 AM 37.4 °F 29.8 °F 32.0 °F 81% 30.20 in 10.0 mi NW 11.5 mph - N/A   Overcast
7:35 AM 37.4 °F 30.3 °F 30.2 °F 75% 30.21 in 10.0 mi NW 10.4 mph 16.1 mph N/A   Overcast
7:55 AM 37.4 °F 30.3 °F 30.2 °F 75% 30.22 in 10.0 mi NW 10.4 mph 17.3 mph N/A   Overcast
8:15 AM 37.4 °F 28.5 °F 30.2 °F 75% 30.23 in 10.0 mi WNW 15.0 mph - N/A   Overcast
8:35 AM 37.4 °F 28.9 °F 28.4 °F 70% 30.23 in 10.0 mi WNW 13.8 mph - N/A   Overcast
8:55 AM 37.4 °F 30.8 °F 30.2 °F 75% 30.24 in 10.0 mi NW 9.2 mph - N/A   Overcast
9:15 AM 37.4 °F 28.9 °F 30.2 °F 75% 30.25 in 10.0 mi WNW 13.8 mph - N/A   Overcast
9:35 AM 37.4 °F 29.3 °F 30.2 °F 75% 30.26 in 10.0 mi NW 12.7 mph - N/A   Overcast
9:55 AM 39.2 °F 31.6 °F 30.2 °F 70% 30.27 in 10.0 mi NNW 12.7 mph 17.3 mph N/A   Mostly Cloudy
10:15 AM 37.4 °F 28.5 °F 30.2 °F 75% 30.28 in 10.0 mi NNW 15.0 mph 18.4 mph N/A   Mostly Cloudy
10:35 AM 39.2 °F 30.8 °F 28.4 °F 65% 30.28 in 10.0 mi NW 15.0 mph 21.9 mph N/A   Partly Cloudy
10:55 AM 39.2 °F 30.8 °F 30.2 °F 70% 30.28 in 10.0 mi NW 15.0 mph 18.4 mph N/A   Clear
11:35 AM 39.2 °F 31.6 °F 28.4 °F 65% 30.27 in 10.0 mi NW 12.7 mph 19.6 mph N/A   Clear
11:55 AM 41.0 °F 33.9 °F 26.6 °F 57% 30.26 in 10.0 mi NW 12.7 mph 17.3 mph N/A   Clear
12:15 PM 41.0 °F 33.5 °F 24.8 °F 53% 30.26 in 10.0 mi NNW 13.8 mph 24.2 mph N/A   Clear
12:55 PM 42.8 °F 36.2 °F 24.8 °F 49% 30.25 in 10.0 mi NNW 12.7 mph - N/A   Clear
1:15 PM 42.8 °F 36.6 °F 26.6 °F 53% 30.26 in 10.0 mi NW 11.5 mph 18.4 mph N/A   Clear
1:35 PM 42.8 °F 36.6 °F 26.6 °F 53% 30.25 in 10.0 mi NW 11.5 mph 24.2 mph N/A   Clear
1:55 PM 42.8 °F 37.0 °F 26.6 °F 53% 30.26 in 10.0 mi NW 10.4 mph 20.7 mph N/A   Clear
2:15 PM 44.6 °F 37.2 °F 26.6 °F 49% 30.26 in 10.0 mi NNW 17.3 mph 21.9 mph N/A   Clear
2:35 PM 44.6 °F 38.1 °F 24.8 °F 46% 30.26 in 10.0 mi NW 13.8 mph 18.4 mph N/A   Clear
2:55 PM 44.6 °F 38.8 °F 24.8 °F 46% 30.27 in 10.0 mi NNW 11.5 mph - N/A   Clear
3:15 PM 44.6 °F 38.1 °F 24.8 °F 46% 30.28 in 10.0 mi North 13.8 mph - N/A   Clear
3:35 PM 44.6 °F 39.7 °F 26.6 °F 49% 30.28 in 10.0 mi NNW 9.2 mph 19.6 mph N/A   Clear
3:55 PM 42.8 °F 37.0 °F 24.8 °F 49% 30.29 in 10.0 mi North 10.4 mph - N/A   Clear
4:15 PM 42.8 °F 36.2 °F 24.8 °F 49% 30.29 in 10.0 mi NW 12.7 mph 17.3 mph N/A   Clear
4:35 PM 42.8 °F 37.5 °F 24.8 °F 49% 30.29 in 10.0 mi NW 9.2 mph - N/A   Clear
5:15 PM 39.2 °F 35.0 °F 24.8 °F 56% 30.30 in 10.0 mi North 5.8 mph - N/A   Clear
5:35 PM 39.2 °F 34.2 °F 24.8 °F 56% 30.30 in 10.0 mi NNW 6.9 mph - N/A   Clear
6:16 PM 39.2 °F 34.2 °F 24.8 °F 56% 30.33 in 10.0 mi NNW 6.9 mph - N/A   Clear
6:35 PM 39.2 °F 35.9 °F 24.8 °F 56% 30.34 in 10.0 mi NNW 4.6 mph - N/A   Clear
6:55 PM 39.2 °F 35.9 °F 24.8 °F 56% 30.35 in 10.0 mi North 4.6 mph - N/A   Clear
7:15 PM 37.4 °F 33.8 °F 24.8 °F 60% 30.36 in 10.0 mi North 4.6 mph - N/A   Clear
7:35 PM 37.4 °F 33.8 °F 24.8 °F 60% 30.37 in 10.0 mi North 4.6 mph - N/A   Clear
7:55 PM 37.4 °F 32.8 °F 26.6 °F 65% 30.38 in 10.0 mi North 5.8 mph - N/A   Clear
8:15 PM 37.4 °F 33.8 °F 24.8 °F 60% 30.38 in 10.0 mi NNW 4.6 mph - N/A   Clear
8:35 PM 37.4 °F 33.8 °F 24.8 °F 60% 30.39 in 10.0 mi North 4.6 mph - N/A   Clear
8:55 PM 35.6 °F 32.8 °F 24.8 °F 65% 30.40 in 10.0 mi North 3.5 mph - N/A   Clear
9:15 PM 35.6 °F 31.7 °F 24.8 °F 65% 30.40 in 10.0 mi North 4.6 mph - N/A   Clear
9:35 PM 35.6 °F 32.8 °F 24.8 °F 65% 30.41 in 10.0 mi North 3.5 mph - N/A   Clear
9:55 PM 35.6 °F 31.7 °F 24.8 °F 65% 30.41 in 10.0 mi North 4.6 mph - N/A   Clear
10:15 PM 33.8 °F 30.8 °F 24.8 °F 70% 30.41 in 10.0 mi North 3.5 mph - N/A   Clear
10:35 PM 33.8 °F - 23.0 °F 65% 30.42 in 10.0 mi North - - N/A   Clear
10:55 PM 33.8 °F - 24.8 °F 70% 30.42 in 10.0 mi Calm Calm - N/A   Clear
11:15 PM 30.2 °F 25.4 °F 26.6 °F 86% 30.42 in 10.0 mi NNE 4.6 mph - N/A   Clear
11:35 PM 30.2 °F 24.3 °F 24.8 °F 80% 30.42 in 10.0 mi NE 5.8 mph - N/A   Clear
11:55 PM 32.0 °F 27.5 °F 24.8 °F 75% 30.42 in 10.0 mi NNE 4.6 mph - N/A   Clear